User: anonymous   Login
Location: Unspecified
(0.0000°N, 0.0000°E)
Time: 08:58:53
(UTC+00:00)
Language:

Meteor 3-5 - Orbit

View from above orbital plane
View from above orbital plane
View from above satellite
View from above satellite

Ground track
Ground track

The orbit data is extracted from the following two-line orbital elements,

1 21655U 91056A   18015.93882375 +.00000037 +00000-0 +63857-4 0  9993
2 21655 082.5570 151.6963 0012450 262.7999 097.1708 13.17083094270024
Epoch (UTC): 15 January 2018 22:31:54
Eccentricity: 0.0012450
inclination: 82.5570°
perigee height: 1186 km
apogee height: 1205 km
right ascension of ascending node: 151.6963°
argument of perigee: 262.7999°
revolutions per day: 13.17083094
mean anomaly at epoch: 97.1708°
orbit number at epoch: 27002

The dashed part of the orbit path shows where the satellite is in the earth's shadow,  

DLR